{"data":{"norad_id":56793,"epoch":"2026-05-25T03:39:46.145952Z","epoch_age_seconds":65061,"freshness":"FRESH","line1":"1 56793U 23078AC  26145.15261743  .00000130  00000+0  18699-4 0  9997","line2":"2 56793  69.9983 151.6656 0003808 266.6791  93.3933 14.98328614164133","mean_motion":14.98328614,"eccentricity":0.0003808,"inclination_deg":69.9983,"raan_deg":151.6656,"arg_perigee_deg":266.6791,"mean_anomaly_deg":93.3933,"bstar":1.8699e-5,"rev_number":16413,"period_min":96.10708802762,"perigee_km":569.41354195337,"apogee_km":574.70681212341,"semimajor_km":6950.1971770384,"source":"CELESTRAK","updated_at":"2026-05-25T13:38:18.156782Z"}}